Starlink 11622

operational
NORAD ID: 63187 Int'l Des: 2025-048 Owner: SPXS Country: US Constellation: starlink
LEOCIRCULAR

Über Starlink 11622

Beschreibung wird geladen...

Live-Position

3D-Globus wird geladen...

Nächste Überflüge

Höhenverlauf

Altitude vs Time

uPlot chart will show altitude changes over time

Zweizeiliger Elementsatz

1 63187U 25048E 25302.66670139 .00119101 00000-0 92125-3 0 9999
2 63187 43.0004 30.0552 0001419 284.8245 314.2460 15.70766950 5989
Epoch: 29. Okt. 2025 • Age: 30 hours

Aktueller Status

Höhe 359.0 km
Geschwindigkeit 7.70 km/s
Subsatellitenpunkt 40.03°N, 79.65°E
Startdatum 13. März 2025
Alter 0.6 years
Typ internet

Technische Details

Klassifizierung Payload
Masse 960.00 kg
Trockenmasse 910.00 kg
Gesamtmasse 960.00 kg
Länge 0.30 m
Durchmesser 4.10 m
Spannweite 29.00 m
Form Box + pan
Hersteller SPXS
Bus-Typ Starlink V2MD
Phasenstatus In Orbit
Besitzer/Staat SPXS/US

Große Konstellationen

Loading constellations...